Imperial, NE

8:04 PM MST on February 26, 2017 (GMT -0700)
Imperial Municipal

Weather History for KIML - August, 2014

Change the Weather History Date:

Thursday, August 7, 2014

  Actual Average Record
Temperature  
Mean Temperature 76 °F 76 °F  
Max Temperature 88 °F 90 °F 105 °F (1935)
Min Temperature 63 °F 62 °F 42 °F (1912)
Degree Days  
Heating Degree Days 0 0  
Month to date heating degree days 0 0  
Since 1 June heating degree days 40 36  
Cooling Degree Days 11 11  
Month to date cooling degree days 85 78  
Year to date cooling degree days 622 662  
Since 1 June cooling degree days 561 618  
Growing Degree Days 25 (Base 50)    
Moisture  
Dew Point 63 °F    
Average Humidity 70    
Maximum Humidity 100    
Minimum Humidity 40    
Precipitation  
Precipitation 0.16 in 0.08 in 3.06 in (1900)
Sea Level Pressure  
Sea Level Pressure 30.00 in    
Wind  
Wind Speed 5 mph (NW)    
Max Wind Speed 30 mph    
Max Gust Speed 38 mph    
Visibility 6 miles    
Events Fog , Rain , Thunderstorm    
T = Trace of Precipitation, MM = Missing Value Source: NWS Daily Summary

Daily Weather History Graph

Daily Weather History Graph

Search for Another Location

Airport or City:

Trip Planner

Search our weather history database for the weather conditions in past years. The results will help you decide how hot, cold, wet, or windy it might be!

Date:

Astronomy

Aug. 07, 2014 Rise Set
Actual Time 5:49 AM MDT 7:54 PM MDT
Civil Twilight 5:19 AM MDT 8:24 PM MDT
Nautical Twilight 4:42 AM MDT 9:00 PM MDT
Astronomical Twilight 4:02 AM MDT 9:40 PM MDT
Moon 5:12 PM MDT (8/7) 2:21 AM MDT (8/7)
Length of Visible Light 15h 04m
Length of Day
14h 04m
Waxing Gibbous, 87% of the Moon is Illuminated
Aug 7
Waxing Gibbous
Aug 10
Full
Aug 17
Last Quarter
Aug 25
New
Sep 2
First Quarter

Hourly Weather History & Observations

Time (MDT) Temp. Heat Index Dew Point Humidity Pressure Visibility Wind Dir Wind Speed Gust Speed Precip Events Conditions
12:53 AM 66.9 °F - 59.0 °F 76% 29.89 in 10.0 mi ESE 4.6 mph - 0.01 in   Partly Cloudy
1:53 AM 64.0 °F - 60.1 °F 87% 29.94 in 10.0 mi North 8.1 mph - N/A   Clear
2:53 AM 64.0 °F - 59.0 °F 84% 29.94 in 10.0 mi WNW 4.6 mph - N/A   Clear
3:00 AM 64.0 °F - 60.1 °F 87% 30.04 in 10.0 mi West 4.6 mph - N/A   Scattered Clouds
3:08 AM 64.0 °F - 60.1 °F 87% 30.04 in 10.0 mi NW 4.6 mph - N/A   Mostly Cloudy
3:53 AM 64.0 °F - 61.0 °F 90% 29.95 in 10.0 mi North 6.9 mph - N/A   Overcast
4:15 AM 64.0 °F - 61.0 °F 90% 30.04 in 9.0 mi North 6.9 mph - N/A   Overcast
4:36 AM 64.0 °F - 63.0 °F 96% 30.04 in 1.8 mi North 3.5 mph - N/A   Overcast
4:51 AM 64.4 °F - 62.6 °F 94% 30.04 in 0.5 mi Calm Calm - N/A Fog Fog
4:53 AM 64.0 °F - 63.0 °F 96% 29.95 in 0.5 mi Calm Calm - N/A Fog Fog
5:53 AM 64.9 °F - 63.0 °F 93% 29.97 in 0.8 mi NNW 4.6 mph - N/A   Mist
6:02 AM 64.9 °F - 64.0 °F 97% 30.07 in 2.0 mi WNW 4.6 mph - N/A   Overcast
6:26 AM 64.9 °F - 64.0 °F 97% 30.08 in 1.0 mi WNW 4.6 mph - N/A   Overcast
6:53 AM 64.9 °F - 64.0 °F 97% 29.98 in 1.2 mi NNW 3.5 mph - N/A   Overcast
7:09 AM 64.9 °F - 64.0 °F 97% 30.07 in 0.8 mi NNW 3.5 mph - N/A   Overcast
7:38 AM 66.0 °F - 64.9 °F 96% 30.08 in 1.2 mi West 3.5 mph - N/A   Overcast
7:53 AM 66.0 °F - 64.0 °F 93% 29.99 in 1.5 mi North 5.8 mph - N/A   Overcast
8:18 AM 66.9 °F - 64.9 °F 93% 30.08 in 2.0 mi Calm Calm - N/A   Overcast
8:53 AM 68.0 °F - 64.9 °F 90% 30.01 in 2.5 mi Calm Calm - N/A   Overcast
8:59 AM 69.1 °F - 64.9 °F 87% 30.08 in 3.0 mi Calm Calm - N/A   Overcast
9:25 AM 70.0 °F - 64.9 °F 84% 30.08 in 4.0 mi Calm Calm - N/A   Haze
9:49 AM 71.6 °F - 64.4 °F 78% 30.08 in 5.0 mi Calm Calm - N/A   Haze
9:53 AM 71.1 °F - 64.9 °F 81% 30.00 in 6.0 mi Calm Calm - N/A   Haze
10:09 AM 73.9 °F - 64.0 °F 71% 30.08 in 7.0 mi Calm Calm - N/A   Scattered Clouds
10:53 AM 73.9 °F - 64.9 °F 73% 29.99 in 8.0 mi Variable 3.5 mph - N/A   Clear
11:53 AM 79.0 °F - 66.0 °F 64% 29.97 in 10.0 mi WNW 5.8 mph - N/A   Clear
12:53 PM 81.0 °F 83.0 °F 66.0 °F 60% 29.94 in 10.0 mi Variable 3.5 mph - N/A   Clear
1:53 PM 82.9 °F 84.6 °F 64.9 °F 54% 29.92 in 10.0 mi Calm Calm - N/A   Clear
2:53 PM 86.0 °F 86.1 °F 61.0 °F 43% 29.89 in 10.0 mi NW 4.6 mph - N/A   Clear
3:53 PM 86.0 °F 85.4 °F 59.0 °F 40% 29.87 in 10.0 mi Calm Calm - N/A   Clear
4:53 PM 82.9 °F 84.4 °F 64.0 °F 53% 29.88 in 10.0 mi East 4.6 mph - N/A   Clear
5:28 PM 81.0 °F 82.7 °F 64.9 °F 58% 29.99 in 10.0 mi South 4.6 mph - N/A Thunderstorm Scattered Clouds
5:46 PM 69.1 °F - 61.0 °F 75% 30.04 in 10.0 mi WSW 17.3 mph 38.0 mph 0.00 in Rain , Thunderstorm Light Thunderstorms and Rain
5:53 PM 68.0 °F - 62.1 °F 81% 29.98 in 10.0 mi WSW 16.1 mph 26.5 mph 0.00 in Rain , Thunderstorm Light Thunderstorms and Rain
6:25 PM 66.0 °F - 60.1 °F 81% 30.07 in 4.0 mi West 21.9 mph 29.9 mph 0.06 in Rain , Thunderstorm Rain
6:44 PM 66.9 °F - 61.0 °F 81% 30.08 in 3.0 mi West 10.4 mph - 0.11 in Rain Rain
6:53 PM 66.0 °F - 61.0 °F 84% 29.99 in 4.0 mi North 10.4 mph - 0.14 in Rain Rain
7:53 PM 68.0 °F - 61.0 °F 78% 29.85 in 10.0 mi South 11.5 mph - 0.02 in   Clear
8:53 PM 68.0 °F - 61.0 °F 78% 29.93 in 10.0 mi SSW 6.9 mph - N/A   Clear
9:53 PM 66.0 °F - 62.1 °F 87% 29.96 in 10.0 mi ESE 3.5 mph - N/A   Clear
10:53 PM 66.0 °F - 61.0 °F 84% 29.96 in 10.0 mi WSW 4.6 mph - N/A   Clear
11:53 PM 64.9 °F - 61.0 °F 87% 29.97 in 10.0 mi NNW 6.9 mph - N/A   Clear